Regional Weather Roundup
Issued by NWS

Home | Current Version | Previous Version | Graphics & Text | Print | Product List | Glossary Off
Versions: 1 2 3 4 5 6 7 8 9 10 11 12 13 14 15 16 17 18 19 20 21 22 23 24 25 26 27 28 29 30 31 32 33 34 35 36 37 38 39 40 41 42 43 44 45 46 47 48 49 50

000
ASUS43 KDTX 081010
RWRMI
MICHIGAN HOURLY REGIONAL WEATHER ROUNDUP
NATIONAL WEATHER SERVICE DETROIT/PONTIAC MI
ISSUED BY NATIONAL WEATHER SERVICE GRAND RAPIDS MI
500 AM EST THU DEC 08 2016

NOTE: "FAIR" INDICATES FEW OR NO CLOUDS BELOW 12,000 FEET WITH NO
SIGNIFICANT WEATHER AND/OR OBSTRUCTION TO VISIBILITY.

MIZ047>049-052>055-059>063-066>070-074>076-081>083-081100-
SOUTHEAST LOWER MICHIGAN

CITY           SKY/WX    TMP DP  RH WIND       PRES   REMARKS
ADRIAN         CLOUDY    26  18  71 W17G26    30.05S WCI  13
ALMA           CLOUDY    26  17  67 W17G25    29.99S WCI  13
ANN ARBOR      CLOUDY    27  19  72 W16G25    30.00S WCI  15
BAD AXE        FLURRIES  27  19  70 W14G24    29.93S WCI  16
DETROIT CITY   CLOUDY    30  18  60 W15G25    29.99F WCI  19
DETROIT        CLOUDY    29  19  66 W18G24    30.01F WCI  16
FLINT          CLOUDY    27  20  75 W18G28    29.98S WCI  14
GROSSE ILE     CLOUDY    30  18  62 W15G21    30.00F WCI  19
HILLSDALE      CLOUDY    25  18  74 W18G29    30.01F WCI  11
HOWELL         CLOUDY    27  20  72 W21G30    29.98S WCI  14

CITY           SKY/WX    TMP DP  RH WIND       PRES   REMARKS
JACKSON        CLOUDY    26  18  71 W15G28    30.01F WCI  14
LANSING        CLOUDY    27  17  66 W22       30.00F WCI  13
MASON          CLOUDY    27  20  77 W13G21    30.00S WCI  16
MONROE         CLOUDY    29  20  69 W15G24    30.02F WCI  18
MT. CLEMENS    CLOUDY    31  18  59 W14       29.95F WCI  20
PONTIAC        CLOUDY    27  19  72 W20G26    29.96S WCI  13
PORT HOPE        N/A     28  18  66 W13G24    29.90S WCI  17
PORT HURON     CLOUDY    30  19  64 W8G20     29.97R WCI  23
TRI CITIES     CLOUDY    27  19  72 W17G28    29.97F WCI  14
YPSILANTI      CLOUDY    30  20  66 W18       30.01S WCI  18
$$
MIZ043>046-050>051-056>058-064>065-071>073-077>080-081100-
SOUTHWEST LOWER MICHIGAN

CITY           SKY/WX    TMP DP  RH WIND       PRES   REMARKS
BATTLE CREEK   CLOUDY    27  19  72 W17G30    30.03F WCI  14
BENTON HARBOR  CLOUDY    27  17  66 W21G29    30.10F WCI  13
BIG RAPIDS     CLOUDY    26  17  69 W8G17     29.95F WCI  17
COLDWATER      CLOUDY    25  19  75 W16       30.05F WCI  13
HOLLAND        FLURRIES  27  19  72 W17G25    30.05F WCI  14
GRAND RAPIDS   CLOUDY    26  18  71 W22G29    30.02S WCI  12
KALAMAZOO      CLOUDY    27  17  66 W16G25    30.05F WCI  15
MARSHALL       CLOUDY    27  19  73 W18G26    30.03S WCI  13
MOUNT PLEASANT CLOUDY    26  16  66 W20G25    29.96S WCI  12
MUSKEGON       FLURRIES  27  17  66 W17G23    30.03F WCI  14
STURGIS        CLOUDY    23  17  76 W13       30.07S WCI  12
$$
MIZ016>042-081100-
NORTHERN LOWER MICHIGAN

CITY           SKY/WX    TMP DP  RH WIND       PRES   REMARKS
ALPENA         CLOUDY    28  17  63 W13G22    29.85F WCI  17
BEAVER ISLAND  CLOUDY    28  21  77 W24G31    29.83S WCI  13
BELLAIRE       FLURRIES  27  19  73 SW10G22   29.89F WCI  17
CADILLAC       LGT SNOW  22  16  77 W14       29.89S WCI  10
CHARLEVOIX     LGT SNOW  27  23  83 SW15G28   29.88F WCI  16
GAYLORD        FLURRIES  24  16  71 W14G28    29.82F WCI  12
HOUGHTON LAKE  FLURRIES  24  16  71 W15       29.89F WCI  11
MANISTEE       FLURRIES  26  18  71 W16G26    29.96S WCI  14
OSCODA         FLURRIES  28  17  62 MISG      29.90S
PELLSTON       LGT SNOW  27  21  78 W10G22    29.83S WCI  17
TRAVERSE CITY  FLURRIES  26  18  71 W13       29.91S WCI  15
LUDINGTON      CLOUDY    26  18  72 W17G24    29.99S WCI  13
$$
MIZ007>008-015-081100-
EASTERN UPPER MICHIGAN

CITY           SKY/WX    TMP DP  RH WIND       PRES   REMARKS
KINROSS        MOCLDY    22  15  75 W18G26    29.76F WCI   7
MACKINAC ISLAN LGT SNOW  27  25  90 W25G32    29.79S WCI  12
NEWBERRY       LGT SNOW  21  16  82 SW15      29.77S WCI   7
S. S. MARIE    MOCLDY    23  16  74 SW13      29.75F WCI  11
$$
MIZ004>006-011>014-085-081100-
CENTRAL UPPER MICHIGAN

CITY           SKY/WX    TMP DP  RH WIND       PRES   REMARKS
MANISTIQUE     FLURRIES  22  13  71 W12G18    29.83S WCI  10
ESCANABA       FLURRIES  21  13  71 W20G28    29.89  WCI   6
MENOMINEE      FLURRIES  20  11  68 W14G24    29.96S WCI   7
SAWYER-GWINN   CLOUDY    20  14  77 W14G21    29.82S WCI   6
$$
MIZ001>003-009>011-084-081100-
WESTERN UPPER MICHIGAN

CITY           SKY/WX    TMP DP  RH WIND       PRES   REMARKS
IRON MOUNTAIN  CLOUDY    18   9  68 W9        29.89R WCI   7
HOUGHTON       LGT SNOW  27  21  78 N18G24    29.83R WCI  14
IRONWOOD       LGT SNOW  20  18  92 W13       29.93R FOG     WCI   7
$$

ABBREVIATIONS USED IN REMARKS
   TC - TEMPERATURE IN CELSIUS
  WCI - WIND CHILL INDEX
   HX - HEAT INDEX
  VSB - VISIBILITY





USA.gov is the U.S. government's official web portal to all federal, state and local government web resources and services.